Probability
0 0 0 0 0 0 0 0 0 0 0 6 10 16 16 13 16 19 26 32 42 39 42 39 35 39 39 42 42 52 52 48 52 45 42 32 29 23 16 13 10 10 10 10
0 0 0 0 0 0 0 0 0 0 0 3 3 10 19 19 29 32 29 42 45 45 45 42 35 42 39 39 42 42 48 48 45 42 45 32 32 23 16 13 10 10 10 10
0 0 0 0 0 0 0 0 0 3 6 6 10 13 19 16 29 39 42 48 52 48 48 42 45 32 35 39 42 42 48 55 45 42 39 35 35 26 13 10 6 6 6 6
0 0 0 0 0 0 0 0 0 3 6 13 13 16 19 23 32 35 55 52 52 52 52 48 39 42 39 48 48 45 45 48 45 45 42 35 32 23 16 10 10 6 6 3
0 0 0 0 3 3 0 3 3 6 13 16 16 16 23 32 26 35 48 48 45 55 52 45 48 52 48 55 52 52 52 52 45 42 39 39 29 23 19 16 6 6 3 3
0 0 0 0 0 3 0 6 6 6 16 16 13 19 23 16 35 45 52 52 55 55 45 48 48 48 61 61 52 52 52 55 52 45 39 35 29 19 13 10 10 6 0 0
0 0 0 0 0 6 3 10 6 6 10 16 16 16 13 23 32 42 61 61 58 61 55 55 52 58 61 61 55 55 55 52 52 48 39 29 29 19 6 10 6 6 0 0
0 0 0 0 6 10 6 6 6 10 13 16 16 23 26 39 45 45 48 61 58 61 52 61 61 65 61 65 61 58 58 58 61 45 45 39 23 16 6 3 3 6 3 0
3 3 3 10 16 6 3 6 13 23 19 26 29 29 32 45 45 58 55 65 61 61 58 58 61 61 61 55 55 61 55 58 52 45 42 35 29 26 10 3 3 3 3 0
16 16 13 16 10 10 10 19 29 29 29 29 29 32 35 35 48 58 52 58 61 58 52 52 55 55 52 48 52 48 48 48 45 39 35 32 23 23 16 13 3 3 3 0
19 13 16 19 16 23 19 26 29 29 29 32 35 35 35 39 45 55 58 55 48 48 55 48 45 52 48 48 42 52 45 45 42 35 29 29 23 19 13 13 13 3 3 0
13 13 13 19 16 23 32 26 29 29 26 26 32 35 35 35 42 45 48 48 45 45 42 48 45 48 48 52 48 42 42 42 42 32 32 26 23 13 6 6 0 0 0 0
13 19 19 16 16 16 26 19 23 29 26 26 32 35 32 35 35 39 42 39 48 45 39 39 39 42 48 45 48 42 39 32 35 29 29 26 23 13 10 0 0 0 0 0
13 16 16 13 16 19 19 23 16 23 32 29 29 35 32 29 35 39 42 39 42 39 39 39 39 45 48 45 45 42 39 32 32 26 26 29 23 19 10 6 6 0 0 0
10 13 19 16 16 13 10 16 16 19 29 26 26 29 35 35 39 35 39 39 39 42 42 42 39 39 42 42 45 39 42 39 32 26 26 26 23 19 16 6 6 6 0 0
6 10 13 23 23 19 13 16 10 13 19 23 29 29 32 29 29 32 32 32 32 35 39 39 35 32 39 42 42 39 35 29 29 29 23 19 16 16 16 13 6 3 0 0
6 10 13 16 13 13 13 10 13 13 16 23 26 26 26 23 23 29 32 32 32 29 29 32 32 26 32 39 35 32 26 23 16 19 16 16 16 16 16 16 10 6 6 0
3 13 13 16 13 13 13 13 13 16 19 19 19 19 19 16 16 16 23 23 23 23 23 29 26 26 26 29 35 35 29 26 16 19 13 13 10 13 13 13 6 6 3 0
6 10 10 13 13 10 10 10 10 10 10 16 13 19 16 13 16 19 16 23 23 23 23 23 19 23 26 29 32 26 29 26 16 13 10 6 6 6 10 13 6 6 3 0
6 6 6 6 6 10 6 6 6 6 10 3 10 6 10 16 16 16 16 19 19 23 23 23 23 23 26 26 16 26 19 19 13 10 10 13 13 6 6 6 6 3 3 0
3 6 6 10 10 6 6 6 6 6 3 6 3 6 6 6 16 16 16 16 16 13 10 16 23 23 19 19 13 19 19 19 13 13 6 6 6 3 3 6 3 0 0 0
0 6 3 3 6 6 6 3 3 3 3 6 10 10 10 10 6 10 6 6 13 10 10 16 16 16 19 19 19 19 23 23 16 10 3 3 3 3 3 3 3 3 0 0
3 3 3 6 6 6 3 3 3 0 6 6 10 10 10 6 6 6 3 3 10 6 6 10 6 13 13 13 16 19 19 16 6 6 3 3 3 6 3 3 3 6 3 0
0 0 0 3 6 6 6 3 6 6 6 3 6 6 6 6 3 3 3 0 0 0 3 6 6 3 0 13 13 13 13 3 6 6 6 3 3 3 3 3 3 6 3 0
0 0 0 3 3 0 3 3 6 3 3 3 3 3 3 3 3 3 3 0 0 0 0 0 0 0 0 3 3 3 3 3 3 3 3 3 0 0 0 0 0 3 3 0
0 0 0 0 3 3 0 0 0 0 0 3 3 3 3 3 3 3 3 0 0 0 0 0 0 0 0 3 3 3 3 3 3 3 3 3 3 0 0 0 0 0 3 0
0 0 0 0 0 0 0 0 0 0 0 3 3 3 3 3 3 0 0 0 0 0 0 0 0 0 0 0 0 0 0 0 0 3 3 3 3 3 3 3 0 0 0 0
Height
5870 5875 5879 5883 5887 5889 5892 5894 5898 5901 5904 5906 5909 5910 5911 5912 5913 5914 5914 5915 5915 5915 5915 5914 5913 5912 5911 5910 5909 5908 5907 5905 5903 5902 5900 5898 5896 5894 5892 5890 5888 5886 5885 5883
5864 5869 5872 5877 5881 5884 5887 5890 5893 5896 5899 5902 5904 5905 5907 5908 5910 5910 5911 5912 5912 5912 5912 5911 5910 5910 5909 5908 5907 5906 5905 5904 5902 5900 5898 5896 5894 5892 5890 5888 5886 5884 5882 5881
5857 5862 5866 5870 5875 5878 5881 5884 5888 5891 5895 5897 5898 5901 5903 5905 5906 5907 5908 5908 5909 5909 5909 5908 5907 5907 5907 5906 5905 5904 5903 5901 5900 5898 5896 5894 5892 5890 5888 5886 5884 5882 5880 5878
5850 5856 5859 5867 5870 5873 5876 5879 5882 5886 5889 5891 5894 5896 5898 5900 5902 5903 5904 5905 5905 5905 5905 5905 5904 5904 5904 5903 5902 5901 5900 5899 5897 5895 5893 5892 5890 5888 5885 5883 5881 5879 5876 5874
5843 5847 5852 5859 5863 5866 5869 5872 5876 5880 5883 5886 5888 5891 5893 5895 5896 5898 5900 5901 5902 5902 5901 5901 5901 5901 5900 5900 5899 5898 5897 5895 5894 5892 5890 5888 5886 5884 5882 5880 5877 5875 5872 5869
5835 5840 5844 5853 5857 5859 5863 5866 5870 5874 5877 5880 5883 5885 5888 5890 5892 5894 5895 5896 5897 5897 5897 5897 5897 5896 5896 5896 5895 5894 5893 5891 5890 5888 5887 5885 5883 5881 5878 5876 5874 5871 5868 5866
5827 5831 5837 5845 5850 5853 5857 5861 5865 5868 5871 5875 5878 5881 5884 5885 5887 5889 5890 5891 5892 5892 5892 5892 5892 5892 5892 5891 5890 5889 5888 5886 5885 5884 5882 5880 5878 5876 5874 5871 5869 5867 5864 5862
5819 5824 5832 5837 5842 5846 5850 5855 5859 5863 5866 5869 5872 5875 5877 5880 5882 5883 5885 5886 5886 5887 5887 5887 5887 5887 5887 5886 5885 5884 5882 5881 5880 5879 5877 5874 5872 5870 5869 5866 5864 5862 5859 5857
5812 5819 5825 5829 5834 5839 5843 5848 5852 5856 5859 5863 5866 5869 5871 5874 5876 5877 5879 5880 5881 5881 5881 5881 5881 5881 5881 5880 5879 5878 5877 5876 5874 5873 5870 5868 5866 5865 5863 5861 5859 5857 5854 5851
5805 5810 5816 5822 5827 5832 5836 5841 5845 5849 5853 5856 5859 5862 5865 5867 5869 5870 5871 5872 5874 5874 5875 5875 5875 5875 5875 5874 5873 5872 5871 5870 5869 5867 5864 5863 5861 5859 5857 5855 5853 5851 5848 5845
5797 5803 5809 5814 5820 5825 5829 5834 5838 5842 5846 5849 5852 5855 5858 5860 5861 5862 5864 5864 5865 5866 5867 5868 5868 5868 5868 5867 5867 5866 5865 5864 5862 5860 5858 5856 5854 5853 5851 5849 5847 5844 5842 5839
5790 5796 5802 5808 5813 5818 5822 5826 5830 5834 5838 5841 5844 5847 5849 5851 5852 5854 5855 5856 5857 5858 5859 5860 5860 5860 5860 5860 5859 5858 5857 5856 5855 5853 5851 5849 5847 5846 5844 5842 5840 5838 5835 5833
5784 5789 5795 5801 5806 5810 5814 5818 5822 5826 5829 5832 5835 5838 5840 5842 5844 5846 5847 5848 5849 5851 5852 5852 5852 5852 5852 5852 5851 5850 5849 5848 5847 5846 5844 5842 5840 5839 5837 5835 5832 5830 5828 5825
5776 5782 5787 5793 5797 5801 5805 5809 5813 5817 5820 5824 5826 5829 5832 5834 5835 5837 5838 5839 5840 5841 5842 5843 5844 5844 5844 5844 5843 5842 5841 5840 5839 5838 5836 5834 5832 5830 5829 5827 5824 5822 5820 5817
5769 5774 5780 5784 5789 5794 5797 5801 5804 5808 5812 5815 5817 5820 5823 5825 5827 5828 5829 5830 5831 5832 5833 5834 5835 5835 5835 5835 5834 5834 5833 5832 5830 5829 5827 5826 5824 5822 5820 5818 5815 5813 5810 5808
5761 5767 5772 5776 5781 5785 5789 5792 5795 5799 5802 5806 5808 5810 5813 5815 5817 5819 5820 5821 5822 5823 5824 5825 5825 5825 5825 5825 5825 5824 5823 5822 5821 5820 5818 5817 5815 5813 5810 5808 5806 5803 5800 5798
5754 5759 5764 5769 5773 5777 5781 5783 5786 5790 5793 5795 5798 5800 5803 5805 5807 5809 5811 5812 5813 5814 5814 5815 5815 5815 5815 5815 5815 5814 5813 5812 5811 5809 5808 5807 5805 5803 5801 5798 5796 5794 5791 5788
5748 5752 5757 5761 5765 5769 5773 5775 5778 5781 5783 5786 5788 5791 5794 5796 5797 5799 5801 5802 5803 5804 5804 5803 5803 5803 5803 5803 5803 5803 5802 5801 5800 5799 5797 5796 5794 5792 5790 5788 5786 5783 5781 5778
5741 5745 5749 5753 5757 5760 5764 5767 5769 5772 5774 5776 5779 5781 5783 5785 5787 5789 5790 5791 5792 5793 5794 5793 5793 5793 5792 5792 5792 5792 5791 5790 5789 5788 5786 5785 5783 5782 5780 5777 5775 5773 5770 5767
5734 5738 5741 5745 5748 5751 5754 5757 5760 5762 5764 5766 5769 5771 5773 5775 5777 5778 5780 5781 5781 5782 5782 5782 5782 5781 5781 5781 5781 5780 5779 5778 5777 5776 5775 5774 5772 5770 5769 5767 5765 5762 5760 5757
5726 5730 5734 5737 5739 5742 5745 5747 5750 5753 5755 5757 5759 5761 5763 5765 5766 5768 5769 5770 5770 5770 5770 5770 5770 5770 5770 5769 5769 5768 5768 5767 5766 5765 5764 5762 5760 5759 5757 5755 5753 5751 5749 5746
5719 5723 5726 5728 5731 5734 5736 5739 5741 5743 5745 5747 5749 5750 5752 5753 5754 5756 5757 5758 5759 5759 5759 5758 5758 5758 5758 5758 5757 5757 5756 5755 5754 5753 5751 5750 5749 5747 5746 5744 5742 5740 5738 5735
5713 5716 5718 5720 5723 5725 5728 5730 5732 5734 5736 5737 5739 5740 5742 5743 5743 5744 5746 5746 5747 5747 5747 5747 5747 5747 5747 5746 5746 5745 5745 5744 5743 5742 5740 5739 5738 5736 5735 5733 5731 5729 5727 5725
5706 5708 5710 5712 5714 5716 5718 5720 5722 5724 5726 5727 5729 5730 5731 5732 5733 5734 5735 5735 5736 5737 5737 5737 5737 5736 5736 5735 5734 5734 5733 5732 5731 5730 5730 5728 5727 5725 5724 5722 5720 5718 5716 5715
5699 5701 5703 5704 5706 5708 5710 5711 5713 5714 5716 5717 5719 5720 5721 5722 5723 5724 5725 5725 5726 5726 5726 5726 5726 5726 5725 5724 5723 5723 5722 5720 5719 5718 5718 5717 5716 5714 5713 5711 5710 5708 5706 5705
5693 5695 5696 5697 5698 5700 5701 5703 5704 5705 5707 5708 5710 5710 5711 5712 5713 5714 5715 5715 5716 5716 5716 5716 5715 5715 5714 5713 5713 5712 5711 5710 5709 5708 5707 5706 5704 5703 5702 5701 5700 5699 5697 5695
5687 5688 5690 5691 5692 5692 5694 5695 5696 5697 5698 5699 5700 5701 5702 5703 5703 5704 5704 5705 5705 5706 5706 5706 5705 5704 5703 5703 5702 5701 5700 5699 5698 5697 5696 5695 5694 5693 5692 5691 5690 5689 5687 5685
Wind_Speed
32 30 28 27 27 27 28 27 25 22 19 15 13 13 11 10 10 10 9 8 7 7 8 8 7 8 8 8 8 8 9 10 10 10 10 11 11 11 11 12 12 12 12 12
34 32 30 29 28 27 28 27 27 25 22 17 15 14 13 12 12 12 11 10 10 9 9 9 8 8 9 9 9 9 10 10 11 12 12 12 12 12 13 13 13 13 13 13
37 34 32 32 30 28 28 29 29 28 25 22 19 16 15 15 16 14 12 11 11 11 11 12 11 10 10 10 10 10 10 11 12 12 12 12 12 12 13 13 14 14 14 14
38 36 37 34 30 29 28 28 29 28 27 24 22 20 19 18 17 17 14 13 14 14 14 13 12 11 12 12 12 12 12 13 13 13 13 13 13 13 14 14 14 14 15 16
39 39 38 35 33 31 31 30 30 30 28 25 25 23 21 20 18 17 16 16 16 16 16 15 14 13 13 13 13 14 14 14 14 14 14 15 15 15 15 16 16 16 17 17
41 41 40 37 34 33 32 32 31 31 29 28 26 25 23 21 20 19 17 18 18 17 17 16 15 15 15 15 16 15 16 16 16 15 15 16 17 17 18 18 19 20 20 20
43 42 41 38 37 35 35 34 32 32 30 30 28 26 24 23 21 21 20 20 20 20 18 17 17 17 17 17 17 18 18 18 18 17 17 18 18 18 20 20 20 21 21 21
42 43 42 39 39 38 36 34 33 32 31 30 29 28 27 26 25 24 24 23 22 21 20 20 19 19 19 19 19 20 20 20 20 20 20 20 19 20 20 21 21 22 22 22
42 41 41 41 40 39 37 36 35 33 32 31 29 29 28 27 27 27 27 25 24 23 22 22 21 21 21 21 22 22 22 22 22 22 22 22 21 21 22 22 23 23 24 24
42 41 40 39 39 39 38 37 35 34 32 32 31 30 30 29 29 28 28 27 27 26 25 24 24 23 23 23 23 23 23 23 23 23 23 23 22 22 23 23 24 25 26 26
41 41 40 38 38 37 37 37 35 34 33 33 32 32 32 32 32 32 31 30 28 28 28 27 26 26 26 26 25 25 25 25 24 24 24 24 24 24 24 25 25 25 26 26
42 41 39 38 37 37 36 35 35 34 35 34 33 32 32 32 32 31 30 30 29 29 29 28 27 27 28 28 27 27 26 26 26 26 26 25 25 25 25 26 26 26 27 28
39 40 39 38 38 37 36 36 36 35 34 34 33 33 32 32 32 32 32 32 32 31 31 30 29 29 29 29 29 29 29 28 28 27 27 27 27 27 27 27 28 28 29 30
39 39 39 38 38 38 38 38 37 36 34 34 34 34 34 33 33 33 33 33 33 32 31 30 30 30 30 30 30 30 30 30 30 29 28 29 29 29 29 29 30 31 31 31
39 39 38 38 38 39 38 38 38 37 36 36 35 36 36 35 35 35 34 34 33 33 32 31 31 31 31 31 31 31 31 32 32 31 31 31 31 32 32 32 32 33 33 33
38 37 36 37 37 37 36 37 38 38 38 38 37 36 36 36 35 35 34 33 33 33 33 33 33 33 33 33 33 33 33 34 34 33 33 33 34 34 34 34 34 34 34 34
37 37 37 36 36 35 36 37 37 38 39 38 37 36 36 35 35 35 34 34 34 34 34 34 34 35 35 35 34 34 34 35 35 35 35 36 36 36 35 35 34 34 35 35
36 36 35 36 36 35 34 36 37 38 38 39 37 36 36 36 36 36 36 35 35 35 35 34 35 35 35 36 36 35 35 36 36 36 36 37 37 37 37 36 36 36 36 36
34 33 33 34 35 36 36 36 36 36 38 38 37 38 38 38 38 37 37 37 36 36 35 35 35 36 37 38 37 37 37 36 36 36 36 37 37 37 36 36 37 37 37 37
33 32 31 32 35 35 36 37 37 37 36 36 37 37 37 38 38 38 38 38 37 38 37 36 36 37 38 38 38 37 37 37 36 36 37 37 37 37 37 37 37 37 37 36
31 32 32 32 33 35 35 35 36 37 37 37 37 38 37 37 37 38 38 37 37 37 39 39 38 37 38 38 37 37 37 37 37 36 36 37 37 37 36 36 37 37 37 36
28 30 31 31 32 32 34 35 35 36 37 37 37 37 37 37 37 38 38 38 38 38 39 39 38 38 37 37 37 38 38 38 37 37 36 36 36 36 36 36 36 36 36 35
27 28 29 30 32 33 34 35 36 36 36 36 36 36 36 36 36 36 37 37 37 37 38 38 38 37 37 37 37 37 37 37 37 36 35 35 36 36 35 35 36 35 34 34
26 27 28 29 30 31 32 32 33 34 35 35 35 35 35 35 35 35 35 35 35 36 36 36 36 37 37 37 37 36 36 37 37 36 36 36 35 35 34 34 34 33 33 32
23 24 25 27 28 28 29 29 30 31 31 32 32 33 33 33 34 34 34 33 33 34 34 34 34 35 36 36 37 36 36 36 35 35 35 35 35 34 33 33 33 33 32 32
21 21 22 23 24 25 27 28 28 29 30 30 30 31 32 32 32 32 32 32 33 33 32 31 32 32 33 33 33 34 34 35 35 36 35 35 34 33 32 31 32 31 31 31
19 20 21 21 21 23 24 25 26 26 27 28 28 29 29 30 30 31 31 31 31 31 31 30 30 30 30 31 30 30 31 32 32 32 31 30 30 30 31 31 30 30 30 30
Wind_Direction
218 218 221 222 220 222 225 226 227 228 228 230 236 239 242 248 254 261 271 281 282 283 292 300 310 318 323 327 333 341 343 344 344 342 339 335 333 333 335 335 334 332 332 332
217 216 218 220 220 221 224 225 226 229 228 227 230 233 238 244 252 263 269 272 275 280 283 287 295 305 311 313 318 326 330 330 331 334 334 334 334 334 332 331 329 328 326 327
217 215 218 220 221 220 220 223 226 229 228 224 229 236 243 248 251 254 261 269 274 281 280 285 289 296 297 300 305 310 316 319 320 324 327 328 329 329 329 328 328 326 323 322
217 214 218 219 219 221 222 225 228 230 230 231 235 240 245 250 255 254 256 266 273 277 280 287 288 290 289 291 298 302 306 309 311 315 317 319 320 322 322 321 322 321 319 318
217 217 219 217 217 220 223 225 226 229 231 233 237 241 247 254 259 258 259 264 269 275 282 285 285 286 286 287 291 295 299 302 302 306 308 310 313 313 315 315 315 315 317 316
218 219 220 218 218 220 222 225 225 228 232 236 239 240 245 251 255 256 261 265 268 273 278 282 283 282 281 283 286 289 292 296 301 301 301 303 306 307 308 311 314 316 316 317
219 220 221 219 218 221 224 226 226 227 232 234 238 241 244 249 253 258 262 267 269 272 274 276 278 278 278 281 285 288 289 292 295 296 297 297 299 302 304 308 311 313 313 313
219 221 221 219 219 223 228 229 229 231 231 233 237 241 244 248 252 256 260 265 269 271 270 271 274 276 278 280 285 289 292 293 293 292 292 293 295 298 301 305 308 309 310 310
220 222 222 222 223 225 229 230 230 233 232 233 236 242 245 249 255 258 258 261 265 265 266 269 273 276 278 281 284 288 291 293 293 291 291 294 296 297 299 302 304 306 307 308
221 222 222 223 224 227 230 232 233 233 233 234 238 241 245 250 255 259 259 259 261 263 265 268 271 274 277 279 283 286 289 292 292 293 295 296 298 298 300 301 302 303 305 307
222 224 224 226 226 229 231 232 233 235 236 236 239 241 245 249 252 256 259 261 260 261 263 265 269 273 275 277 281 282 286 288 290 290 292 294 295 296 297 299 301 302 304 306
224 224 224 226 228 231 232 232 233 235 238 238 239 242 245 249 253 256 258 257 258 260 262 264 268 271 274 276 278 280 283 286 287 289 291 293 293 294 295 297 298 299 301 302
225 226 227 228 229 231 232 233 234 237 239 240 242 245 249 250 252 254 257 258 259 260 262 265 268 271 274 276 277 280 282 284 285 287 290 291 291 291 293 294 295 296 298 300
224 226 228 228 230 232 234 236 237 239 240 243 246 247 250 251 253 254 257 258 260 261 262 264 267 270 272 274 276 278 280 282 283 285 287 288 287 289 291 292 293 294 296 298
223 226 229 231 232 234 236 238 240 241 241 244 246 247 248 251 253 254 256 258 260 262 264 266 268 269 271 273 275 276 278 280 283 284 285 285 286 288 289 290 291 294 295 296
223 225 228 230 232 234 236 238 240 241 242 243 244 245 247 249 251 253 255 258 260 262 265 267 268 270 271 272 273 275 277 279 281 282 283 284 285 286 288 290 291 292 294 295
225 227 229 231 232 235 238 239 239 240 241 244 244 244 246 248 251 253 254 257 261 263 265 266 267 269 271 272 273 274 276 278 280 281 282 283 285 286 286 288 289 291 293 293
227 230 231 234 235 237 239 241 242 242 243 245 246 247 249 251 253 255 256 258 261 264 266 267 268 269 270 271 272 274 276 277 278 280 281 281 283 284 285 286 287 289 290 291
229 230 233 234 235 238 241 243 243 246 246 246 247 249 250 251 253 255 258 260 262 264 267 267 267 268 269 270 271 273 275 276 277 279 279 280 281 283 284 285 286 287 289 290
230 232 235 237 237 240 242 242 243 245 245 247 250 250 253 253 254 256 259 262 264 266 266 267 267 268 269 270 271 272 274 275 276 278 278 279 282 283 284 285 285 286 287 288
231 235 238 240 242 242 241 241 242 244 246 248 250 252 255 256 258 259 260 263 265 266 267 268 268 269 270 271 272 273 275 277 278 278 278 279 281 282 284 285 286 286 286 287
235 237 240 243 244 243 242 244 245 247 249 251 253 255 256 259 261 262 262 264 265 266 268 269 270 270 271 271 272 274 276 278 279 279 278 278 280 281 282 284 285 286 287 287
239 241 242 245 247 247 247 247 248 251 252 253 256 257 257 260 261 261 263 263 264 266 269 269 269 271 272 272 273 274 275 276 277 277 278 278 279 280 281 283 285 286 287 287
241 243 245 246 248 248 249 250 251 253 254 254 257 259 259 260 261 262 263 265 267 268 270 270 270 272 273 273 273 273 273 274 274 275 277 277 277 279 280 284 287 286 287 286
241 243 246 247 248 249 249 250 251 253 254 255 257 259 259 260 261 262 263 265 266 269 270 270 271 272 273 273 273 272 272 274 274 276 278 278 278 280 282 284 285 286 286 286
245 247 249 250 251 251 252 252 253 254 255 256 258 259 260 261 261 261 262 265 267 268 269 270 271 272 274 274 274 274 274 274 275 276 277 278 278 278 279 281 283 284 286 286
247 248 249 250 251 252 252 253 255 256 256 257 258 258 259 260 261 262 264 266 268 269 270 271 273 274 275 275 275 276 275 275 276 277 279 279 278 278 279 280 281 283 285 288